Regional Weather Roundup
Issued by NWS Upton, NY

Current Version | Previous Version | Graphics & Text | Print | Product List | Glossary Off
Versions: 1 2 3 4 5 6 7 8 9 10 11 12 13 14 15 16 17 18 19 20 21 22 23 24 25 26 27 28 29 30 31 32 33 34 35 36 37 38 39 40 41 42 43 44 45 46 47 48 49 50

000
ASUS41 KOKX 301008
RWROKX

REGIONAL WEATHER ROUNDUP
NATIONAL WEATHER SERVICE NEW YORK NY
600 AM EDT MON MAR 30 2015

NOTE: "FAIR" INDICATES FEW OR NO CLOUDS BELOW 12,000 FEET WITH NO
SIGNIFICANT WEATHER AND/OR OBSTRUCTIONS TO VISIBILITY.

NYZ071-072-176-178-NJZ106-104-301100-
NEW YORK CITY METRO AREA


CITY           SKY/WX    TMP DP  RH WIND       PRES   REMARKS
CENTRAL PARK   CLOUDY    39  15  37 VRB7      29.99F WCI  34
LAGUARDIA APRT CLOUDY    38  15  39 SW12      29.98F WCI  30
KENNEDY INTL   CLOUDY    39  21  48 SW15      30.00F WCI  31
NEWARK/LIBERTY CLOUDY    38  18  44 S14       29.98F WCI  30
BRNX BOT. GARD   N/A    N/A N/A N/A SW17      29.97F
TETERBORO      CLOUDY    37  16  42 SW12G20   29.96F WCI  29
$$

NYZ177-179-078>081-301100-
LONG ISLAND NEW YORK

CITY           SKY/WX    TMP DP  RH WIND       PRES   REMARKS
FARMINGDALE    CLOUDY    38  28  67 SW13      29.99F WCI  30
ISLIP          CLOUDY    38  27  64 SW13G18   29.98F WCI  30
SHIRLEY        CLOUDY    38  28  67 S9        30.00F WCI  31
WESTHAMPTON    CLOUDY    37  28  70 S9G16     30.01F WCI  30
MONTAUK POINT    N/A     38  28  67 S10       30.01F WCI  31
$$

NYZ052-065-067-301100-
HUDSON VALLEY

CITY           SKY/WX    TMP DP  RH WIND       PRES   REMARKS
WHITE PLAINS   CLOUDY    37  14  38 SW7       29.94F WCI  32
NEWBURGH       RAIN      34  25  69 SW18G30   29.93F FOG     WCI  23
MONTGOMERY     LGT SNOW  31  28  89 SW9       29.90F VSB 1   WCI  23
POUGHKEEPSIE   LGT SNOW  35  23  61 SW12G24   29.93F WCI  27
ALBANY         FLURRIES  36  14  40 S16G26    29.83F WCI  26
$$

NJZ001-105-106-008-010-013-015-019>022-104-301100-
NEW JERSEY

CITY           SKY/WX    TMP DP  RH WIND       PRES   REMARKS
NEWARK/LIBERTY CLOUDY    38  18  44 S14       29.98F WCI  30
TETERBORO      CLOUDY    37  16  42 SW12G20   29.96F WCI  29
CALDWELL       CLOUDY    36  16  44 SW9       29.97F WCI  29
MORRISTOWN     CLOUDY    37  18  44 S5        29.96F WCI  34
SOMERVILLE     CLOUDY    37  20  50 SE5       29.92F WCI  33
SUSSEX         LGT SNOW  31  28  89 SW5       29.91F FOG     WCI  26
ANDOVER          N/A     30  28  92 S3        29.91F
TRENTON        CLOUDY    33  27  78 S12       29.95F WCI  24
MILLVILLE      CLOUDY    36  31  82 S7        29.99F WCI  30
ATLANTIC CITY  CLOUDY    35  32  88 S9        30.00F WCI  28
WRIGHTSTOWN    MOCLDY    32  30  92 S6        29.95F WCI  27
TOMS RIVER     CLOUDY    36  27  69 S8G20     29.99F WCI  29
BELMAR         CLOUDY    37  18  44 SW13G23   30.00S WCI  29
$$

PAZ047>061-062-071-301100-
EASTERN PENNSYLVANIA

CITY           SKY/WX    TMP DP  RH WIND       PRES   REMARKS
PHILADELPHIA   CLOUDY    35  31  85 S10       29.99F WCI  27
ALLENTOWN      CLOUDY    34  29  82 CALM      29.92F
SCRANTON       CLOUDY    35  25  66 S12G21    29.83F WCI  27
$$

CTZ002-004>006-009-010-012-RIZ004-006-007-MAZ004-011-015-301100-
SOUTHERN NEW ENGLAND
 IN CT

CITY           SKY/WX    TMP DP  RH WIND       PRES   REMARKS
BRADLEY INTL   CLOUDY    34  23  64 S9        29.93F WCI  27
HARTFORD       CLOUDY    34  22  61 S8        29.96F WCI  27
DANBURY        CLOUDY    34  14  43 S6        29.95F WCI  29
WTRBRY/OXFORD  CLOUDY    34  16  47 SW10      29.95S WCI  26
BRIDGEPORT     CLOUDY    37  27  67 SW8       29.98F WCI  31
MERIDEN        CLOUDY    35  22  58 S8        29.97F WCI  29
NEW HAVEN      CLOUDY    36  26  67 SW7       29.98F WCI  30
CHESTER        PTSUNNY   34  23  64 S7        29.97F WCI  28
GROTON         CLOUDY    36  28  73 S9        29.99F WCI  29
WILLIMANTIC    CLOUDY    33  23  66 SE5       29.96F WCI  29

 IN RI

CITY           SKY/WX    TMP DP  RH WIND       PRES   REMARKS
PROVIDENCE     MOCLDY    31  26  82 S8        30.00F WCI  23
BLOCK ISLAND   PTCLDY    36  27  69 SW14      30.01F WCI  27
WESTERLY       MOCLDY    36  27  69 S8        30.00F WCI  30

 IN MA

CITY           SKY/WX    TMP DP  RH WIND       PRES   REMARKS
BOSTON         MOCLDY    32  23  69 S10       29.97  WCI  24
WORCESTER      CLOUDY    29  18  63 SW13      29.89F WCI  19
WESTFIELD      CLOUDY    32  20  61 S7        29.91F WCI  26
PROVINCETOWN   PTCLDY    34  28  80 SW15      30.02S WCI  24
NANTUCKET      PTCLDY    35  27  72 SW13      30.06  WCI  26
$$

ANZ330-335-338-340-345-350-353-355-301100-
COASTAL MARINE OBSERVATIONS


STATION/POSITION TIME  SKY/WX   TEMP    WIND        PRES    VSBY  WAVE
                                AIR SEA DIR/SP/G                  HT/PER
                 (UTC)          (F)     (DEG/KT/KT) (MB)    (MI)  (FT/S)
NY HARB ENTRANCE 0950            39 38  210/ 19/ 23 1014.9          4/ 5
4S FIRE IS       0903               37                N/A           4/12
20S FIRE ISLAND  0850               38              1017.4          4/ 4
23SW MTP         0950                                 N/A           5/10
HUDSON CANYON    NOT AVBL
EXECUTION ROCKS  NOT AVBL
WESTERN LI SOUND NOT AVBL
CENTRAL LI SOUND NOT AVBL
EASTERN LI SOUND NOT AVBL
ROBBINS REEF     0900            37     210/ 11/ 14 1014.4
$$


>>>>>>>>>>>>>>>>>>>>>>>>>>>> KEY <<<<<<<<<<<<<<<<<<<<<<<<<<<
>                                                          <
>     SKY/WX - SKY CONDITION/PRESENT WEATHER               <
>     TMP    - TEMPERATURE IN FAHRENHEIT                   <
>     DP     - DEWPOINT IN FAHRENHEIT                      <
>     RH     - RELATIVE HUMIDITY IN PERCENT                <
>     WIND   - DIRECTION AND SPEED IN MPH                  <
>     PRES   - MEAN SEA LEVEL PRESSURE IN INCHES OF HG     <
>     WCI    - WIND CHILL INDEX                            <
>     VSB    - VISIBILITY IN MILES                         <
>     HX     - HEAT INDEX                                  <
>     TC     - TEMPERATURE IN CELSIUS                      <
>     VRB    - VARIABLE WIND DIRECTION                     <
>                                                          <
>>>>>>>>>>>>>>>>>>>>>>>>>>>> KEY <<<<<<<<<<<<<<<<<<<<<<<<<<<





USA.gov is the U.S. government's official web portal to all federal, state and local government web resources and services.